Weather History for Sedalia, MO

Change the Weather History Date:

Thursday, February 16, 2012

  Actual Average Record
Temperature  
Mean Temperature 43 °F 37 °F  
Max Temperature 51 °F 46 °F 72 °F (1961)
Min Temperature 35 °F 27 °F -6 °F (1958)
Degree Days  
Heating Degree Days 22 28  
Month to date heating degree days 420 486  
Since 1 July heating degree days 2748 3301  
Cooling Degree Days 0 0  
Month to date cooling degree days 0 0  
Year to date cooling degree days 0 0  
Moisture  
Dew Point 33 °F    
Average Humidity 70    
Maximum Humidity 100    
Minimum Humidity 39    
Precipitation  
Precipitation 0.00 in 0.06 in 0.54 in (2008)
Month to date precipitation 2.03 1.13  
Year to date precipitation 2.68 2.80  
Sea Level Pressure  
Sea Level Pressure 30.19 in    
Wind  
Wind Speed 6 mph (NW)    
Max Wind Speed 16 mph    
Max Gust Speed 20 mph    
Visibility 6 miles    
Events      
T = Trace of Precipitation, MM = Missing Value Source: NWS Daily Summary

Daily Weather History Graph

Daily Weather History Graph

Search for Another Location

Airport:

Trip Planner

Search our weather history database for the weather conditions in past years. The results will help you decide how hot, cold, wet, or windy it might be!

Date:

Astronomy

Feb. 16, 2012 Rise Set
Actual Time 7:03 AM CST 5:51 PM CST
Civil Twilight 6:35 AM CST 6:18 PM CST
Nautical Twilight 6:04 AM CST 6:49 PM CST
Astronomical Twilight 5:33 AM CST 7:20 PM CST
Moon 2:57 AM CST (2/16) 12:45 PM CST (2/16)
Length of Visible Light 11h 42m
Length of Day
10h 48m
Waning Crescent, 28% of the Moon is Illuminated
Feb 16
Waning Crescent
Feb 21
New
Feb 29
First Quarter
Mar 8
Full
Mar 14
Last Quarter

Hourly Weather History & Observations

Time (CST) Temp. Windchill Dew Point Humidity Pressure Visibility Wind Dir Wind Speed Gust Speed Precip Events Conditions
12:03 AM 42.8 °F 37.5 °F 41.0 °F 93% 30.03 in 1.5 mi WNW 9.2 mph - N/A   Overcast
12:12 AM 42.8 °F 36.6 °F 41.0 °F 93% 30.04 in 3.0 mi NW 11.5 mph - N/A   Overcast
12:53 AM 41.0 °F 34.3 °F 39.9 °F 96% 30.07 in 3.0 mi NW 11.5 mph 19.6 mph N/A   Overcast
1:22 AM 41.0 °F 35.2 °F 39.2 °F 93% 30.06 in 4.0 mi NW 9.2 mph - N/A   Overcast
1:53 AM 41.0 °F 36.4 °F 39.0 °F 93% 30.09 in 4.0 mi WNW 6.9 mph - N/A   Overcast
2:00 AM 41.0 °F 35.8 °F 39.2 °F 93% 30.08 in 4.0 mi WNW 8.1 mph - N/A   Overcast
2:53 AM 41.0 °F 34.3 °F 39.0 °F 93% 30.10 in 4.0 mi NW 11.5 mph - N/A   Overcast
3:00 AM 41.0 °F 33.9 °F 39.2 °F 93% 30.09 in 4.0 mi NW 12.7 mph - N/A   Overcast
3:53 AM 39.0 °F 31.8 °F 37.0 °F 93% 30.12 in 4.0 mi NW 11.5 mph - N/A   Mostly Cloudy
4:02 AM 39.2 °F 32.5 °F 35.6 °F 87% 30.12 in 4.0 mi WNW 10.4 mph - N/A   Scattered Clouds
4:30 AM 37.4 °F 30.8 °F 35.6 °F 93% 30.14 in 3.0 mi WNW 9.2 mph - N/A   Mostly Cloudy
4:53 AM 37.0 °F 31.6 °F 34.0 °F 89% 30.16 in 3.0 mi WNW 6.9 mph - N/A   Overcast
5:02 AM 35.6 °F 29.2 °F 33.8 °F 93% 30.15 in 3.0 mi WNW 8.1 mph - N/A   Mostly Cloudy
5:13 AM 35.6 °F 29.2 °F 33.8 °F 93% 30.15 in 3.0 mi WNW 8.1 mph - N/A   Partly Cloudy
5:22 AM 35.6 °F 29.2 °F 33.8 °F 93% 30.15 in 2.5 mi WNW 8.1 mph - N/A   Partly Cloudy
5:53 AM 35.1 °F 29.3 °F 33.1 °F 92% 30.19 in 2.5 mi WNW 6.9 mph - N/A   Clear
6:39 AM 35.6 °F 27.5 °F 32.0 °F 87% 30.21 in 3.0 mi WNW 11.5 mph - N/A   Clear
6:53 AM 35.1 °F 26.4 °F 32.0 °F 89% 30.25 in 3.0 mi WNW 12.7 mph - N/A   Clear
7:08 AM 35.6 °F 28.0 °F 32.0 °F 87% 30.20 in 2.5 mi NW 10.4 mph - N/A   Clear
7:53 AM 35.1 °F 28.6 °F 32.0 °F 89% 30.24 in 2.5 mi NW 8.1 mph - N/A   Clear
8:08 AM 35.6 °F 28.6 °F 32.0 °F 87% 30.23 in 3.0 mi NW 9.2 mph - N/A   Clear
8:53 AM 37.0 °F 30.4 °F 33.1 °F 86% 30.27 in 4.0 mi NW 9.2 mph - N/A   Clear
9:53 AM 39.9 °F 35.1 °F 35.1 °F 83% 30.30 in 6.0 mi NNW 6.9 mph - N/A   Haze
10:53 AM 43.0 °F 38.2 °F 35.1 °F 74% 30.31 in - NNW 8.1 mph - N/A   Clear
11:53 AM 46.9 °F - 32.0 °F 56% 30.29 in 10.0 mi North - - N/A   Clear
12:53 PM 48.0 °F - 30.9 °F 52% 30.28 in 10.0 mi North 4.6 mph - N/A   Clear
1:53 PM 48.9 °F - 28.9 °F 46% 30.26 in 10.0 mi NNW 5.8 mph - N/A   Clear
2:53 PM 50.0 °F - 30.0 °F 46% 30.26 in 10.0 mi NNW 6.9 mph - N/A   Clear
3:53 PM 50.0 °F - 27.0 °F 41% 30.26 in 10.0 mi Variable 3.5 mph - N/A   Clear
5:53 PM 45.0 °F 43.5 °F 28.9 °F 53% 30.25 in 10.0 mi North 3.5 mph - N/A   Clear
6:53 PM 45.0 °F - 25.0 °F 46% 30.27 in 10.0 mi Calm Calm - N/A   Clear
7:53 PM 42.1 °F - 25.0 °F 51% 30.25 in 10.0 mi Calm Calm - N/A   Clear
8:53 PM 42.1 °F - 25.0 °F 51% 30.24 in 10.0 mi Calm Calm - N/A   Clear
9:53 PM 39.9 °F 36.7 °F 26.1 °F 58% 30.25 in 10.0 mi South 4.6 mph - N/A   Clear
10:53 PM 37.0 °F 32.4 °F 26.1 °F 65% 30.25 in 10.0 mi South 5.8 mph - N/A   Clear
11:53 PM 36.0 °F 32.1 °F 26.1 °F 67% 30.24 in 10.0 mi SSE 4.6 mph - N/A   Clear